Location: Ferma
(41.9500°N, 44.5167°E)
Time: 18:04:05
(UTC+00:00)

BREEZE-M DEB (TANK) - Pass Details

Date: 24 October 2021
Orbit: 335 x 14799 km, 49.5° (Epoch: 01 December)

Event Time Altitude Azimuth Distance (km) Brightness Sun altitude
Rises 15:34:07 0° 293° (WNW) 5,138 9.2 -16.9°
Reaches altitude 10° 15:39:01 10° 300° (WNW) 2,857 7.5 -17.8°
Maximum altitude 15:44:07 40° 11° (N) 760 3.6 -18.7°
Enters shadow 15:44:31 38° 33° (NNE) 748 3.4 -18.8°
